Volver al catálogo

DELTA 1 DEB

ActivoLEO
NORAD 10835·DEBRIS·🇺🇸 United States

Lanzado Jul 29, 1976 desde Vandenberg Space Force Base

Loading…

Próximos Pases (próximas 24 horas)

TLE

ActualizadoSource: Space-Track

Época: Sep 14, 2026, 15:48 UTC

1 10835U 76077CF  26257.65850874  .00008428  00000-0  77263-2 0  9998
2 10835 102.0317  34.7768 0038437 330.9505  43.0503 13.82940930377357

Sigue DELTA 1 DEB en tiempo real con AllMySat

Download on the App Store